KC5TIL-3 Weather Reports


time (UTC)temp
C
wind
direction
speed
KPH
gust
KPH
rain 1hr
cm
rain 24hr
cm
rain mn
cm
humidity
%
barometer
mb
20260506151356 13 351 11.3 14.5 0.00 0.00 0.00 78 1012.8
20260506150855 12 271 9.7 9.7 0.00 0.00 0.00 76 1012.8
20260506150356 12 289 4.8 9.7 0.00 0.00 0.00 75 1011.8
20260506145834 12 289 9.7 19.3 0.00 0.00 0.00 73 1011.8
20260506145333 12 32 14.5 9.7 0.00 0.00 0.00 71 1011.8
20260506144834 12 290 4.8 8.0 0.00 0.00 0.00 67 1013.8
20260506144336 12 346 4.8 11.3 0.00 0.00 0.00 67 1013.8
20260506143835 12 299 0.0 11.3 0.00 0.00 0.00 66 1013.8
20260506143337 12 315 6.4 17.7 0.00 0.00 0.00 66 1013.8
20260506142839 12 7 11.3 14.5 0.00 0.00 0.00 66 1013.8
20260506142337 12 0 6.4 20.9 0.00 0.00 0.00 67 1013.8
20260506141839 11 22 19.3 25.7 0.00 0.00 0.00 66 1011.8
20260506141341 11 31 19.3 25.7 0.00 0.00 0.00 65 1011.8
20260506140840 12 16 14.5 24.1 0.00 0.00 0.00 63 1011.8
20260506140342 12 7 16.1 24.1 0.00 0.00 0.00 62 1012.8
20260506135844 12 64 12.9 22.5 0.00 0.00 0.00 61 1012.8
20260506135342 12 320 12.9 17.7 0.00 0.00 0.00 62 1012.8
20260506134346 11 34 16.1 22.5 0.00 0.00 0.00 62 1011.8
20260506133840 12 35 16.1 27.4 0.00 0.00 0.00 61 1011.8
20260506133342 11 29 16.1 22.5 0.00 0.00 0.00 61 1011.8
20260506132844 12 2 11.3 27.4 0.00 0.00 0.00 61 1011.8
20260506132343 11 39 19.3 19.3 0.00 0.00 0.00 60 1011.8
20260506131844 12 10 11.3 22.5 0.00 0.00 0.00 59 1011.8
20260506131342 12 10 19.3 27.4 0.00 0.00 0.00 59 1011.8
20260506130840 12 21 16.1 19.3 0.00 0.00 0.00 58 1011.8
20260506130342 12 8 11.3 22.5 0.00 0.00 0.00 57 1010.8
20260506125844 12 21 17.7 24.1 0.00 0.00 0.00 57 1010.8
20260506125338 12 23 17.7 24.1 0.00 0.00 0.00 54 1010.8
20260506124840 12 25 11.3 24.1 0.00 0.00 0.00 51 1010.8
20260506124342 12 5 17.7 22.5 0.00 0.00 0.00 50 1010.8
20260506123343 12 30 19.3 24.1 0.00 0.00 0.00 49 1010.8
20260506122844 12 287 14.5 22.5 0.00 0.00 0.00 48 1010.8
20260506121827 12 19 16.1 25.7 0.00 0.00 0.00 47 1009.8
20260506121328 12 37 14.5 24.1 0.00 0.00 0.00 47 1009.8
20260506120827 13 10 11.3 25.7 0.00 0.00 0.00 47 1009.8
20260506120329 12 47 19.3 25.7 0.00 0.00 0.00 47 1010.8
20260506115832 13 22 17.7 22.5 0.00 0.00 0.00 47 1010.8
20260506115324 13 44 17.7 16.1 0.00 0.00 0.00 47 1010.8
20260506114826 13 11 11.3 22.5 0.00 0.00 0.00 46 1009.8
20260506114328 13 32 16.1 17.7 0.00 0.00 0.00 46 1009.8
20260506113827 13 18 11.3 19.3 0.00 0.00 0.00 45 1009.8
20260506113329 13 13 11.3 22.5 0.00 0.00 0.00 45 1009.8
20260506112831 13 25 11.3 22.5 0.00 0.00 0.00 45 1009.8
20260506112329 13 25 16.1 20.9 0.00 0.00 0.00 45 1009.8
20260506111831 13 37 12.9 19.3 0.00 0.00 0.00 45 1009.8
20260506111334 13 57 14.5 20.9 0.00 0.00 0.00 46 1009.8
20260506110832 13 37 12.9 25.7 0.00 0.00 0.00 46 1009.8
20260506110333 13 17 14.5 20.9 0.00 0.00 0.00 47 1009.8
20260506105335 13 21 17.7 24.1 0.00 0.00 0.00 46 1009.8
20260506104836 13 17 14.5 24.1 0.00 0.00 0.00 46 1008.8
20260506103338 13 307 8.0 19.3 0.00 0.00 0.00 47 1008.8
20260506102841 14 339 16.1 20.9 0.00 0.00 0.00 47 1008.8
20260506102340 14 20 12.9 19.3 0.00 0.00 0.00 48 1008.8
20260506101841 14 23 16.1 19.3 0.00 0.00 0.00 48 1008.8
20260506100841 14 6 11.3 19.3 0.00 0.00 0.00 48 1008.8
20260506100339 14 324 8.0 19.3 0.00 0.00 0.00 48 1008.8
20260506095334 14 318 8.0 17.7 0.00 0.00 0.00 48 1008.8
20260506094836 14 356 11.3 17.7 0.00 0.00 0.00 48 1007.8
20260506093837 14 24 12.9 17.7 0.00 0.00 0.00 47 1007.8
20260506092339 14 26 14.5 19.3 0.00 0.00 0.00 48 1007.8
20260506091841 14 16 9.7 14.5 0.00 0.00 0.00 48 1007.8
20260506090842 15 7 12.9 19.3 0.00 0.00 0.00 48 1007.8
20260506090343 15 347 14.5 17.7 0.00 0.00 0.00 48 1007.8
20260506085846 15 30 11.3 16.1 0.00 0.00 0.00 48 1007.8
20260506085339 15 12 12.9 16.1 0.00 0.00 0.00 48 1007.8
20260506084841 15 20 9.7 17.7 0.00 0.00 0.00 48 1007.8
20260506083842 15 31 16.1 17.7 0.00 0.00 0.00 48 1007.8
20260506083343 15 2 11.3 16.1 0.00 0.00 0.00 48 1007.8
20260506082342 15 21 11.3 17.7 0.00 0.00 0.00 48 1007.8
20260506081845 15 9 11.3 17.7 0.00 0.00 0.00 47 1007.8
20260506080835 15 4 11.3 12.9 0.00 0.00 0.00 47 1007.8
20260506073333 16 26 9.7 14.5 0.00 0.00 0.00 50 1007.8
20260506072334 16 180 6.4 12.9 0.00 0.00 0.00 50 1007.8
20260506071338 16 19 11.3 14.5 0.00 0.00 0.00 50 1006.8
20260506070835 16 345 8.0 17.7 0.00 0.00 0.00 51 1006.8
20260506062328 16 34 12.9 16.1 0.00 0.00 0.00 51 1006.8
20260506061830 16 35 11.3 19.3 0.00 0.00 0.00 51 1007.8
20260506061331 16 154 11.3 20.9 0.00 0.00 0.00 51 1007.8
20260506060830 16 45 16.1 20.9 0.00 0.00 0.00 51 1007.8
20260506060333 16 5 11.3 20.9 0.00 0.00 0.00 51 1007.8
20260506051341 17 28 14.5 20.9 0.00 0.00 0.00 48 1007.8
20260506050342 17 36 14.5 19.3 0.00 0.00 0.00 47 1007.8
20260506044346 17 15 14.5 17.7 0.00 0.00 0.00 47 1006.8
20260506042844 18 24 16.1 24.1 0.00 0.00 0.00 47 1006.8
20260506042342 18 5 12.9 20.9 0.00 0.00 0.00 47 1006.8
20260506041845 18 81 12.9 27.4 0.00 0.00 0.00 46 1007.8
20260506041346 18 31 16.1 20.9 0.00 0.00 0.00 46 1007.8
20260506035848 19 335 14.5 17.7 0.00 0.00 0.00 44 1006.8
20260506035347 19 20 11.3 22.5 0.00 0.00 0.00 43 1006.8
20260506034850 19 343 11.3 22.5 0.00 0.00 0.00 43 1006.8
20260506034351 19 16 11.3 19.3 0.00 0.00 0.00 43 1006.8
20260506033845 19 34 11.3 24.1 0.00 0.00 0.00 42 1006.8
20260506033343 19 17 12.9 22.5 0.00 0.00 0.00 42 1006.8
20260506032844 19 31 14.5 22.5 0.00 0.00 0.00 41 1006.8
20260506031845 20 334 14.5 22.5 0.00 0.00 0.00 40 1005.8
20260506030845 20 38 14.5 24.1 0.00 0.00 0.00 40 1005.8
20260506030347 20 4 16.1 22.5 0.00 0.00 0.00 39 1005.8
20260506025850 20 21 12.9 19.3 0.00 0.00 0.00 38 1005.8
20260506024845 20 25 16.1 24.1 0.00 0.00 0.00 37 1005.8
20260506024346 20 10 19.3 20.9 0.00 0.00 0.00 37 1005.8
20260506023845 20 28 16.1 24.1 0.00 0.00 0.00 36 1005.8
20260506022845 20 17 17.7 22.5 0.00 0.00 0.00 36 1005.8
20260506022342 21 14 11.3 24.1 0.00 0.00 0.00 37 1005.8
20260506020343 21 18 11.3 22.5 0.00 0.00 0.00 36 1004.8
20260506015343 21 314 17.7 24.1 0.00 0.00 0.00 36 1004.8
20260506014845 22 53 11.3 24.1 0.00 0.00 0.00 35 1003.8
20260506014346 22 356 17.7 20.9 0.00 0.00 0.00 35 1003.8
20260506012848 22 48 16.1 19.3 0.00 0.00 0.00 33 1003.8
20260506011346 23 33 16.1 20.9 0.00 0.00 0.00 33 1003.8
20260506005844 23 315 9.7 12.9 0.00 0.00 0.00 31 1003.8
20260506005343 24 6 9.7 16.1 0.00 0.00 0.00 31 1003.8
20260506004845 24 36 11.3 16.1 0.00 0.00 0.00 31 1002.8
20260506004342 24 11 12.9 19.3 0.00 0.00 0.00 29 1002.8
20260506003831 24 346 14.5 19.3 0.00 0.00 0.00 29 1002.8
20260506002830 24 356 11.3 12.9 0.00 0.00 0.00 28 1002.8
20260506002329 25 41 8.0 12.9 0.00 0.00 0.00 27 1002.8
20260506001832 25 317 4.8 16.1 0.00 0.00 0.00 26 1002.8
20260506001328 25 337 8.0 17.7 0.00 0.00 0.00 26 1002.8
20260506000330 25 7 11.3 17.7 0.00 0.00 0.00 26 1002.8
20260505235829 25 356 8.0 19.3 0.00 0.00 0.00 26 1002.8
20260505234325 26 5 8.0 17.7 0.00 0.00 0.00 25 1002.8
20260505233322 26 46 6.4 17.7 0.00 0.00 0.00 24 1002.8
20260505232823 26 252 11.3 24.1 0.00 0.00 0.00 24 1002.8
20260505231824 26 329 6.4 22.5 0.00 0.00 0.00 24 1001.8
20260505231326 27 330 8.0 19.3 0.00 0.00 0.00 24 1001.8
20260505230903 27 342 12.9 16.1 0.00 0.00 0.00 23 1001.8
20260505230824 27 342 12.9 16.1 0.00 0.00 0.00 23 1001.8
20260505230326 28 340 8.0 17.7 0.00 0.00 0.00 20 1001.8
20260505225824 28 347 11.3 14.5 0.00 0.00 0.00 19 1001.8
20260505224824 28 14 11.3 19.3 0.00 0.00 0.00 19 1001.8
20260505224326 28 305 9.7 19.3 0.00 0.00 0.00 18 1001.8
20260505223322 29 288 9.7 14.5 0.00 0.00 0.00 18 1001.8
20260505222824 30 318 8.0 19.3 0.00 0.00 0.00 18 1001.8
20260505222317 30 351 6.4 19.3 0.00 0.00 0.00 18 1001.8
20260505221819 30 6 12.9 12.9 0.00 0.00 0.00 18 1001.8
20260505221321 32 297 6.4 11.3 0.00 0.00 0.00 17 1001.8
20260505220820 32 341 4.8 12.9 0.00 0.00 0.00 17 1001.8
20260505220322 32 276 4.8 16.1 0.00 0.00 0.00 17 1001.8
20260505215823 32 294 8.0 11.3 0.00 0.00 0.00 17 1001.8
20260505214824 32 321 8.0 11.3 0.00 0.00 0.00 17 1001.8
20260505214326 32 299 6.4 8.0 0.00 0.00 0.00 17 1001.8
20260505213327 32 204 4.8 11.3 0.00 0.00 0.00 17 1001.8
20260505212828 32 259 4.8 9.7 0.00 0.00 0.00 17 1001.8
20260505211829 32 271 6.4 11.3 0.00 0.00 0.00 17 1001.8
20260505211331 32 208 8.0 12.9 0.00 0.00 0.00 17 1001.8
20260505210929 32 187 6.4 19.3 0.00 0.00 0.00 17 1001.8
20260505210830 32 187 6.4 19.3 0.00 0.00 0.00 17 1001.8
20260505210331 32 29 6.4 17.7 0.00 0.00 0.00 17 1001.8
20260505205824 31 223 9.7 20.9 0.00 0.00 0.00 17 1001.8
20260505204825 32 183 6.4 16.1 0.00 0.00 0.00 18 1001.8
20260505204326 31 188 8.0 17.7 0.00 0.00 0.00 17 1001.8
20260505203826 32 261 6.4 11.3 0.00 0.00 0.00 17 1001.8
20260505202829 31 235 16.1 16.1 0.00 0.00 0.00 18 1001.8
20260505201830 31 176 6.4 19.3 0.00 0.00 0.00 18 1002.8
20260505201327 31 202 8.0 16.1 0.00 0.00 0.00 18 1002.8
20260505200826 31 213 11.3 16.1 0.00 0.00 0.00 19 1002.8
20260505200327 31 198 11.3 24.1 0.00 0.00 0.00 19 1002.8
20260505195829 31 142 11.3 19.3 0.00 0.00 0.00 19 1002.8
20260505195328 31 65 9.7 25.7 0.00 0.00 0.00 18 1002.8
20260505194830 31 100 9.7 29.0 0.00 0.00 0.00 20 1002.8
20260505194332 30 184 14.5 20.9 0.00 0.00 0.00 20 1002.8
20260505193830 30 210 16.1 29.0 0.00 0.00 0.00 20 1002.8
20260505193332 31 131 9.7 19.3 0.00 0.00 0.00 21 1002.8
20260505192333 30 226 16.1 30.6 0.00 0.00 0.00 22 1002.8
20260505191337 30 220 16.1 19.3 0.00 0.00 0.00 23 1002.8
20260505190835 30 7 11.3 19.3 0.00 0.00 0.00 22 1002.8
20260505190332 30 206 11.3 35.4 0.00 0.00 0.00 24 1002.8
20260505185834 30 150 9.7 24.1 0.00 0.00 0.00 23 1002.8
20260505185332 30 214 16.1 20.9 0.00 0.00 0.00 25 1002.8
20260505184825 30 226 11.3 32.2 0.00 0.00 0.00 26 1002.8
20260505184327 28 156 17.7 24.1 0.00 0.00 0.00 29 1002.8
20260505183826 29 196 12.9 29.0 0.00 0.00 0.00 29 1002.8
20260505183328 28 197 16.1 32.2 0.00 0.00 0.00 30 1002.8
20260505182328 28 217 17.7 25.7 0.00 0.00 0.00 31 1002.8
20260505181830 28 184 11.3 30.6 0.00 0.00 0.00 31 1002.8
20260505180830 28 176 14.5 29.0 0.00 0.00 0.00 30 1002.8
20260505180327 27 159 16.1 29.0 0.00 0.00 0.00 32 1002.8
20260505175830 27 141 17.7 33.8 0.00 0.00 0.00 31 1002.8
20260505175328 27 188 24.1 29.0 0.00 0.00 0.00 34 1002.8
20260505174825 27 198 19.3 29.0 0.00 0.00 0.00 33 1002.8
20260505174322 27 226 24.1 29.0 0.00 0.00 0.00 34 1002.8
20260505173821 27 152 20.9 24.1 0.00 0.00 0.00 35 1002.8
20260505173323 27 216 17.7 22.5 0.00 0.00 0.00 34 1002.8
20260505172825 27 242 14.5 29.0 0.00 0.00 0.00 36 1002.8
20260505172323 26 187 24.1 33.8 0.00 0.00 0.00 37 1002.8
20260505171825 26 215 24.1 32.2 0.00 0.00 0.00 38 1002.8
20260505171323 26 203 19.3 35.4 0.00 0.00 0.00 38 1002.8
20260505170821 26 189 20.9 35.4 0.00 0.00 0.00 39 1002.8
20260505170322 26 192 22.5 19.3 0.00 0.00 0.00 39 1002.8
20260505165825 26 158 9.7 32.2 0.00 0.00 0.00 37 1002.8
20260505164825 26 212 17.7 32.2 0.00 0.00 0.00 39 1002.8
20260505164327 25 184 25.7 25.7 0.00 0.00 0.00 40 1002.8
20260505163825 26 193 16.1 29.0 0.00 0.00 0.00 40 1002.8
20260505163327 26 198 14.5 32.2 0.00 0.00 0.00 40 1002.8
20260505162829 26 182 14.5 30.6 0.00 0.00 0.00 41 1002.8
20260505162328 25 186 22.5 38.6 0.00 0.00 0.00 41 1002.8
20260505161829 25 226 22.5 33.8 0.00 0.00 0.00 42 1002.8
20260505161332 25 213 20.9 40.2 0.00 0.00 0.00 42 1002.8
20260505160825 25 212 22.5 33.8 0.00 0.00 0.00 43 1002.8
20260505160326 25 178 24.1 33.8 0.00 0.00 0.00 43 1002.8
20260505153327 24 115 20.9 38.6 0.00 0.00 0.00 49 1002.8
20260505152322 23 211 24.1 30.6 0.00 0.00 0.00 50 1002.8
20260505151824 23 146 22.5 25.7 0.00 0.00 0.00 51 1002.8